Time,TemperatureF,DewpointF,PressureIn,WindDirection,WindDirectionDegrees,WindSpeedMPH,WindSpeedGustMPH,Humidity,HourlyPrecipIn,Conditions,Clouds,dailyrainin,SoftwareType,DateUTC
2013-05-06 00:02:00,51.0,36.0,30.17,West,281,0.0,0.0,56,0.00,,,0.00,,2013-05-06 04:02:00,
2013-05-06 00:12:00,51.0,36.0,30.17,West,281,0.0,0.0,56,0.00,,,0.00,,2013-05-06 04:12:00,
2013-05-06 00:23:00,52.0,37.0,30.17,ENE,74,1.0,3.0,57,0.00,,,0.00,,2013-05-06 04:23:00,
2013-05-06 00:32:00,52.0,37.0,30.17,ENE,66,0.0,5.0,57,0.00,,,0.00,,2013-05-06 04:32:00,
2013-05-06 00:43:00,52.0,37.0,30.17,ENE,66,0.0,5.0,57,0.00,,,0.00,,2013-05-06 04:43:00,
2013-05-06 00:53:00,52.0,38.0,30.17,NNE,32,1.0,4.0,59,0.00,,,0.00,,2013-05-06 04:53:00,
2013-05-06 01:02:00,51.0,38.0,30.17,NE,43,0.0,4.0,62,0.00,,,0.00,,2013-05-06 05:02:00,
2013-05-06 01:12:00,51.0,38.0,30.17,NE,43,0.0,4.0,62,0.00,,,0.00,,2013-05-06 05:12:00,
2013-05-06 01:22:00,50.0,38.0,30.18,NW,321,0.0,3.0,63,0.00,,,0.00,,2013-05-06 05:22:00,
2013-05-06 01:32:00,50.0,39.0,30.18,NNW,335,0.0,4.0,65,0.00,,,0.00,,2013-05-06 05:32:00,
2013-05-06 01:42:00,50.0,39.0,30.18,NNW,335,0.0,4.0,65,0.00,,,0.00,,2013-05-06 05:42:00,
2013-05-06 01:52:00,49.0,39.0,30.17,ESE,111,1.0,3.0,68,0.00,,,0.00,,2013-05-06 05:52:00,
2013-05-06 02:02:00,48.0,38.0,30.17,NNE,33,0.0,0.0,69,0.00,,,0.00,,2013-05-06 06:02:00,
2013-05-06 02:12:00,48.0,38.0,30.17,NNE,33,0.0,0.0,69,0.00,,,0.00,,2013-05-06 06:12:00,
2013-05-06 02:21:00,48.0,38.0,30.17,ENE,70,0.0,0.0,69,0.00,,,0.00,,2013-05-06 06:21:00,
2013-05-06 02:32:00,47.0,38.0,30.16,ENE,63,0.0,0.0,70,0.00,,,0.00,,2013-05-06 06:32:00,
2013-05-06 02:42:00,47.0,38.0,30.16,ENE,63,0.0,0.0,70,0.00,,,0.00,,2013-05-06 06:42:00,
2013-05-06 02:52:00,47.0,38.0,30.16,NE,56,0.0,0.0,71,0.00,,,0.00,,2013-05-06 06:52:00,
2013-05-06 03:01:00,46.0,38.0,30.16,ENE,57,0.0,0.0,74,0.00,,,0.00,,2013-05-06 07:01:00,
2013-05-06 03:11:00,46.0,38.0,30.16,ENE,57,0.0,0.0,74,0.00,,,0.00,,2013-05-06 07:11:00,
2013-05-06 03:22:00,46.0,38.0,30.16,NE,38,0.0,2.0,74,0.00,,,0.00,,2013-05-06 07:22:00,
2013-05-06 03:32:00,45.0,38.0,30.16,NE,39,0.0,0.0,75,0.00,,,0.00,,2013-05-06 07:32:00,
2013-05-06 03:42:00,45.0,38.0,30.16,NE,39,0.0,0.0,75,0.00,,,0.00,,2013-05-06 07:42:00,
2013-05-06 03:52:00,44.0,37.0,30.16,NE,38,0.0,0.0,76,0.00,,,0.00,,2013-05-06 07:52:00,
2013-05-06 04:02:00,44.0,38.0,30.16,NE,38,0.0,0.0,79,0.00,,,0.00,,2013-05-06 08:02:00,
2013-05-06 04:12:00,44.0,38.0,30.16,NE,38,0.0,0.0,79,0.00,,,0.00,,2013-05-06 08:12:00,
2013-05-06 04:22:00,43.0,37.0,30.16,NE,38,0.0,0.0,80,0.00,,,0.00,,2013-05-06 08:22:00,
2013-05-06 04:32:00,42.0,37.0,30.16,NE,38,0.0,0.0,81,0.00,,,0.00,,2013-05-06 08:32:00,
2013-05-06 04:42:00,42.0,37.0,30.16,NE,38,0.0,0.0,81,0.00,,,0.00,,2013-05-06 08:42:00,
2013-05-06 04:52:00,42.0,37.0,30.16,NE,39,0.0,0.0,81,0.00,,,0.00,,2013-05-06 08:52:00,
2013-05-06 05:01:00,43.0,38.0,30.16,NE,51,0.0,0.0,82,0.00,,,0.00,,2013-05-06 09:01:00,
2013-05-06 05:11:00,43.0,38.0,30.16,NE,51,0.0,0.0,82,0.00,,,0.00,,2013-05-06 09:11:00,
2013-05-06 05:22:00,43.0,38.0,30.16,East,97,0.0,1.0,81,0.00,,,0.00,,2013-05-06 09:22:00,
2013-05-06 05:33:00,43.0,37.0,30.16,NE,41,0.0,0.0,80,0.00,,,0.00,,2013-05-06 09:33:00,
2013-05-06 05:43:00,43.0,37.0,30.16,NE,41,0.0,0.0,80,0.00,,,0.00,,2013-05-06 09:43:00,
2013-05-06 05:53:00,43.0,37.0,30.16,East,85,0.0,0.0,80,0.00,,,0.00,,2013-05-06 09:53:00,
2013-05-06 06:02:00,42.0,37.0,30.17,East,87,0.0,0.0,82,0.00,,,0.00,,2013-05-06 10:02:00,
2013-05-06 06:12:00,42.0,37.0,30.17,East,87,0.0,0.0,82,0.00,,,0.00,,2013-05-06 10:12:00,
2013-05-06 06:22:00,42.0,37.0,30.17,East,87,0.0,0.0,82,0.00,,,0.00,,2013-05-06 10:22:00,
2013-05-06 06:33:00,42.0,37.0,30.17,East,88,0.0,0.0,83,0.00,,,0.00,,2013-05-06 10:33:00,
2013-05-06 06:42:00,42.0,37.0,30.17,East,88,0.0,0.0,83,0.00,,,0.00,,2013-05-06 10:42:00,
2013-05-06 06:52:00,43.0,38.0,30.17,East,88,0.0,0.0,82,0.00,,,0.00,,2013-05-06 10:52:00,
2013-05-06 07:02:00,45.0,39.0,30.17,East,87,0.0,0.0,78,0.00,,,0.00,,2013-05-06 11:02:00,
2013-05-06 07:12:00,45.0,39.0,30.17,East,87,0.0,0.0,78,0.00,,,0.00,,2013-05-06 11:12:00,
2013-05-06 07:22:00,47.0,39.0,30.18,East,88,0.0,0.0,74,0.00,,,0.00,,2013-05-06 11:22:00,
2013-05-06 07:32:00,47.0,39.0,30.18,NE,44,0.0,0.0,74,0.00,,,0.00,,2013-05-06 11:32:00,
2013-05-06 07:42:00,47.0,39.0,30.18,NE,44,0.0,0.0,74,0.00,,,0.00,,2013-05-06 11:42:00,
2013-05-06 07:52:00,48.0,40.0,30.18,NE,42,0.0,0.0,75,0.00,,,0.00,,2013-05-06 11:52:00,
2013-05-06 08:01:00,49.0,41.0,30.19,SSE,148,1.0,5.0,74,0.00,,,0.00,,2013-05-06 12:01:00,
2013-05-06 08:12:00,49.0,41.0,30.19,SSE,148,1.0,5.0,74,0.00,,,0.00,,2013-05-06 12:12:00,
2013-05-06 08:22:00,51.0,41.0,30.19,South,190,1.0,3.0,68,0.00,,,0.00,,2013-05-06 12:22:00,
2013-05-06 08:32:00,52.0,42.0,30.19,NE,51,2.0,4.0,68,0.00,,,0.00,,2013-05-06 12:32:00,
2013-05-06 08:42:00,52.0,42.0,30.19,NE,51,2.0,4.0,68,0.00,,,0.00,,2013-05-06 12:42:00,
2013-05-06 08:52:00,51.0,42.0,30.19,East,94,2.0,10.0,70,0.00,,,0.00,,2013-05-06 12:52:00,
2013-05-06 09:01:00,51.0,42.0,30.19,ENE,76,5.0,8.0,70,0.00,,,0.00,,2013-05-06 13:01:00,
2013-05-06 09:11:00,51.0,42.0,30.19,ENE,76,5.0,8.0,70,0.00,,,0.00,,2013-05-06 13:11:00,
2013-05-06 09:21:00,52.0,42.0,30.19,ENE,63,4.0,6.0,69,0.00,,,0.00,,2013-05-06 13:21:00,
2013-05-06 09:32:00,52.0,42.0,30.19,ENE,74,7.0,9.0,68,0.00,,,0.00,,2013-05-06 13:32:00,
2013-05-06 09:42:00,52.0,42.0,30.19,ENE,74,7.0,9.0,68,0.00,,,0.00,,2013-05-06 13:42:00,
2013-05-06 09:52:00,54.0,42.0,30.19,ENE,65,5.0,6.0,64,0.00,,,0.00,,2013-05-06 13:52:00,
2013-05-06 10:01:00,53.0,41.0,30.19,ENE,61,5.0,11.0,64,0.00,,,0.00,,2013-05-06 14:01:00,
2013-05-06 10:11:00,53.0,41.0,30.19,ENE,61,5.0,11.0,64,0.00,,,0.00,,2013-05-06 14:11:00,
2013-05-06 10:21:00,54.0,40.0,30.19,NE,53,3.0,9.0,60,0.00,,,0.00,,2013-05-06 14:21:00,
2013-05-06 10:32:00,55.0,41.0,30.19,ENE,72,2.0,10.0,59,0.00,,,0.00,,2013-05-06 14:32:00,
2013-05-06 10:42:00,55.0,41.0,30.19,ENE,72,2.0,10.0,59,0.00,,,0.00,,2013-05-06 14:42:00,
2013-05-06 10:52:00,56.0,40.0,30.19,NE,44,4.0,8.0,54,0.00,,,0.00,,2013-05-06 14:52:00,
2013-05-06 11:01:00,58.0,42.0,30.19,SSW,211,1.0,9.0,55,0.00,,,0.00,,2013-05-06 15:01:00,
2013-05-06 11:11:00,58.0,42.0,30.19,SSW,211,1.0,9.0,55,0.00,,,0.00,,2013-05-06 15:11:00,
2013-05-06 11:21:00,60.0,41.0,30.19,NNE,33,1.0,5.0,49,0.00,,,0.00,,2013-05-06 15:21:00,
2013-05-06 11:33:00,61.0,42.0,30.19,WSW,252,3.0,8.0,49,0.00,,,0.00,,2013-05-06 15:33:00,
2013-05-06 11:42:00,61.0,42.0,30.19,WSW,252,3.0,8.0,49,0.00,,,0.00,,2013-05-06 15:42:00,
2013-05-06 11:53:00,61.0,43.0,30.19,North,4,2.0,6.0,52,0.00,,,0.00,,2013-05-06 15:53:00,
2013-05-06 12:03:00,61.0,42.0,30.19,NE,50,5.0,8.0,49,0.00,,,0.00,,2013-05-06 16:03:00,
2013-05-06 12:13:00,61.0,42.0,30.19,NE,50,5.0,8.0,49,0.00,,,0.00,,2013-05-06 16:13:00,
2013-05-06 12:23:00,62.0,44.0,30.18,ENE,59,3.0,6.0,51,0.00,,,0.00,,2013-05-06 16:23:00,
2013-05-06 12:33:00,62.0,45.0,30.18,SSW,201,3.0,6.0,53,0.00,,,0.00,,2013-05-06 16:33:00,
2013-05-06 12:42:00,62.0,45.0,30.18,SSW,201,3.0,6.0,53,0.00,,,0.00,,2013-05-06 16:42:00,
2013-05-06 12:52:00,62.0,45.0,30.17,SW,236,3.0,8.0,54,0.00,,,0.00,,2013-05-06 16:52:00,
2013-05-06 13:03:00,63.0,46.0,30.17,NE,48,5.0,9.0,54,0.00,,,0.00,,2013-05-06 17:03:00,
2013-05-06 13:12:00,63.0,46.0,30.17,NE,48,5.0,9.0,54,0.00,,,0.00,,2013-05-06 17:12:00,
2013-05-06 13:23:00,63.0,47.0,30.16,West,269,2.0,8.0,56,0.00,,,0.00,,2013-05-06 17:23:00,
2013-05-06 13:31:00,65.0,46.0,30.16,NE,34,2.0,9.0,51,0.00,,,0.00,,2013-05-06 17:31:00,
2013-05-06 13:42:00,65.0,46.0,30.16,NE,34,2.0,9.0,51,0.00,,,0.00,,2013-05-06 17:42:00,
2013-05-06 13:52:00,65.0,47.0,30.15,SW,221,2.0,7.0,52,0.00,,,0.00,,2013-05-06 17:52:00,
2013-05-06 14:01:00,66.0,49.0,30.14,SE,125,1.0,6.0,54,0.00,,,0.00,,2013-05-06 18:01:00,
2013-05-06 14:12:00,66.0,49.0,30.14,SE,125,1.0,6.0,54,0.00,,,0.00,,2013-05-06 18:12:00,
2013-05-06 14:22:00,67.0,48.0,30.14,East,84,5.0,10.0,51,0.00,,,0.00,,2013-05-06 18:22:00,
2013-05-06 14:32:00,67.0,48.0,30.14,West,275,3.0,8.0,51,0.00,,,0.00,,2013-05-06 18:32:00,
2013-05-06 14:43:00,67.0,48.0,30.14,West,275,3.0,8.0,51,0.00,,,0.00,,2013-05-06 18:43:00,
2013-05-06 14:52:00,68.0,50.0,30.13,SW,218,1.0,7.0,53,0.00,,,0.00,,2013-05-06 18:52:00,
2013-05-06 15:01:00,68.0,52.0,30.13,NE,49,2.0,5.0,56,0.00,,,0.00,,2013-05-06 19:01:00,
2013-05-06 15:11:00,68.0,52.0,30.13,NE,49,2.0,5.0,56,0.00,,,0.00,,2013-05-06 19:11:00,
2013-05-06 15:22:00,69.0,52.0,30.12,ESE,117,0.0,9.0,54,0.00,,,0.00,,2013-05-06 19:22:00,
2013-05-06 15:32:00,69.0,51.0,30.11,SSE,167,2.0,7.0,52,0.00,,,0.00,,2013-05-06 19:32:00,
2013-05-06 15:42:00,69.0,51.0,30.11,SSE,167,2.0,7.0,52,0.00,,,0.00,,2013-05-06 19:42:00,
2013-05-06 15:52:00,69.0,50.0,30.11,SSW,200,3.0,6.0,51,0.00,,,0.00,,2013-05-06 19:52:00,
2013-05-06 16:02:00,70.0,50.0,30.10,WSW,252,1.0,7.0,49,0.00,,,0.00,,2013-05-06 20:02:00,
2013-05-06 16:11:00,70.0,50.0,30.10,WSW,252,1.0,7.0,49,0.00,,,0.00,,2013-05-06 20:11:00,
2013-05-06 16:21:00,69.0,49.0,30.09,WNW,293,2.0,8.0,49,0.00,,,0.00,,2013-05-06 20:21:00,
2013-05-06 16:32:00,69.0,48.0,30.09,SSE,165,3.0,7.0,48,0.00,,,0.00,,2013-05-06 20:32:00,
2013-05-06 16:42:00,69.0,48.0,30.09,SSE,165,3.0,7.0,48,0.00,,,0.00,,2013-05-06 20:42:00,
2013-05-06 16:52:00,70.0,50.0,30.09,SSE,159,2.0,7.0,49,0.00,,,0.00,,2013-05-06 20:52:00,
2013-05-06 17:01:00,70.0,49.0,30.09,WSW,255,3.0,5.0,48,0.00,,,0.00,,2013-05-06 21:01:00,
2013-05-06 17:11:00,70.0,49.0,30.09,WSW,255,3.0,5.0,48,0.00,,,0.00,,2013-05-06 21:11:00,
2013-05-06 17:21:00,70.0,50.0,30.09,SE,136,1.0,5.0,49,0.00,,,0.00,,2013-05-06 21:21:00,
2013-05-06 17:33:00,69.0,50.0,30.09,East,83,1.0,5.0,51,0.00,,,0.00,,2013-05-06 21:33:00,
2013-05-06 17:43:00,69.0,50.0,30.09,East,83,1.0,5.0,51,0.00,,,0.00,,2013-05-06 21:43:00,
2013-05-06 17:53:00,69.0,50.0,30.09,SW,232,3.0,6.0,51,0.00,,,0.00,,2013-05-06 21:53:00,
2013-05-06 18:03:00,69.0,51.0,30.09,SW,220,4.0,8.0,52,0.00,,,0.00,,2013-05-06 22:03:00,
2013-05-06 18:12:00,69.0,51.0,30.09,SW,220,4.0,8.0,52,0.00,,,0.00,,2013-05-06 22:12:00,
2013-05-06 18:22:00,67.0,50.0,30.09,SSW,210,1.0,9.0,54,0.00,,,0.00,,2013-05-06 22:22:00,
2013-05-06 18:33:00,66.0,50.0,30.09,WNW,285,3.0,6.0,57,0.00,,,0.00,,2013-05-06 22:33:00,
2013-05-06 18:45:00,66.0,50.0,30.09,WNW,285,3.0,6.0,57,0.00,,,0.00,,2013-05-06 22:45:00,
2013-05-06 18:52:00,65.0,50.0,30.09,WSW,252,1.0,5.0,59,0.00,,,0.00,,2013-05-06 22:52:00,
2013-05-06 19:03:00,65.0,50.0,30.09,WSW,248,0.0,4.0,59,0.00,,,0.00,,2013-05-06 23:03:00,
2013-05-06 19:12:00,65.0,50.0,30.09,WSW,248,0.0,4.0,59,0.00,,,0.00,,2013-05-06 23:12:00,
2013-05-06 19:22:00,65.0,51.0,30.09,NNW,342,0.0,3.0,60,0.00,,,0.00,,2013-05-06 23:22:00,
2013-05-06 19:32:00,66.0,51.0,30.09,SW,229,1.0,8.0,58,0.00,,,0.00,,2013-05-06 23:32:00,
2013-05-06 19:42:00,66.0,51.0,30.09,SW,229,1.0,8.0,58,0.00,,,0.00,,2013-05-06 23:42:00,
2013-05-06 19:52:00,66.0,51.0,30.09,SE,134,1.0,5.0,59,0.00,,,0.00,,2013-05-06 23:52:00,
2013-05-06 20:01:00,65.0,51.0,30.10,WNW,287,0.0,1.0,61,0.00,,,0.00,,2013-05-07 00:01:00,
2013-05-06 20:12:00,65.0,51.0,30.10,WNW,287,0.0,1.0,61,0.00,,,0.00,,2013-05-07 00:12:00,
2013-05-06 20:21:00,63.0,51.0,30.10,SSW,201,0.0,3.0,64,0.00,,,0.00,,2013-05-07 00:21:00,
2013-05-06 20:32:00,62.0,51.0,30.10,SW,222,0.0,0.0,67,0.00,,,0.00,,2013-05-07 00:32:00,
2013-05-06 20:42:00,62.0,51.0,30.10,SW,222,0.0,0.0,67,0.00,,,0.00,,2013-05-07 00:42:00,
2013-05-06 20:52:00,60.0,50.0,30.10,SW,222,0.0,0.0,70,0.00,,,0.00,,2013-05-07 00:52:00,
2013-05-06 21:01:00,59.0,50.0,30.11,SE,132,0.0,2.0,72,0.00,,,0.00,,2013-05-07 01:01:00,
2013-05-06 21:11:00,59.0,50.0,30.11,SE,132,0.0,2.0,72,0.00,,,0.00,,2013-05-07 01:11:00,
2013-05-06 21:21:00,58.0,50.0,30.11,WSW,246,0.0,0.0,74,0.00,,,0.00,,2013-05-07 01:21:00,
2013-05-06 21:32:00,58.0,50.0,30.12,South,187,0.0,0.0,76,0.00,,,0.00,,2013-05-07 01:32:00,
2013-05-06 21:42:00,58.0,50.0,30.12,South,187,0.0,0.0,76,0.00,,,0.00,,2013-05-07 01:42:00,
2013-05-06 21:53:00,57.0,50.0,30.12,SW,224,0.0,0.0,78,0.00,,,0.00,,2013-05-07 01:53:00,
2013-05-06 22:02:00,57.0,50.0,30.13,WSW,253,0.0,0.0,78,0.00,,,0.00,,2013-05-07 02:02:00,
2013-05-06 22:11:00,57.0,50.0,30.13,WSW,253,0.0,0.0,78,0.00,,,0.00,,2013-05-07 02:11:00,
2013-05-06 22:22:00,57.0,50.0,30.13,SW,222,0.0,0.0,78,0.00,,,0.00,,2013-05-07 02:22:00,
2013-05-06 22:32:00,57.0,51.0,30.13,WSW,257,0.0,0.0,79,0.00,,,0.00,,2013-05-07 02:32:00,
2013-05-06 22:42:00,57.0,51.0,30.13,WSW,257,0.0,0.0,79,0.00,,,0.00,,2013-05-07 02:42:00,
2013-05-06 22:52:00,57.0,51.0,30.13,WSW,253,0.0,0.0,80,0.00,,,0.00,,2013-05-07 02:52:00,
2013-05-06 23:02:00,57.0,51.0,30.13,SW,235,0.0,0.0,80,0.00,,,0.00,,2013-05-07 03:02:00,
2013-05-06 23:11:00,57.0,51.0,30.13,SW,235,0.0,0.0,80,0.00,,,0.00,,2013-05-07 03:11:00,
2013-05-06 23:22:00,57.0,51.0,30.13,SW,226,0.0,0.0,81,0.00,,,0.00,,2013-05-07 03:22:00,
2013-05-06 23:32:00,56.0,51.0,30.13,SSE,148,0.0,0.0,82,0.00,,,0.00,,2013-05-07 03:32:00,
2013-05-06 23:43:00,56.0,51.0,30.13,SSE,148,0.0,0.0,82,0.00,,,0.00,,2013-05-07 03:43:00,
2013-05-06 23:53:00,56.0,51.0,30.12,SW,229,0.0,3.0,83,0.00,,,0.00,,2013-05-07 03:53:00,